CAPE
1047 992 879 972 1044 1237 1525 1914 1817 2099 2081 1627 1688 1522 1587 1893 2130 2138 2020 2254 2228 1805
905 876 921 1128 1191 1226 1480 1268 1606 1849 1947 1818 1863 1609 1497 1814 2102 2287 2207 1991 2071 1967
1102 1056 1092 1067 1211 1304 1328 1558 1505 1665 1820 1997 2013 2033 2030 2267 2379 2386 2062 1781 2072 2376
1204 1148 1255 1199 1134 1264 1294 1386 1252 1509 1490 1679 1988 2001 2290 2161 2198 2289 2320 2012 2134 2140
913 1088 1165 1255 1225 1119 1218 1565 1663 1717 1808 1953 1835 1966 2298 2089 1975 2141 2013 1961 1990 2009
1033 1168 1337 1263 1335 1591 1511 1691 1594 1351 1602 1682 1882 1993 2130 2144 2124 2088 2000 1948 1860 1739
591 625 532 582 700 1052 1416 1654 1548 1394 1256 1309 1132 1042 1087 1284 1380 1622 1517 1987 1968 1916
65 183 199 234 229 419 760 1017 1426 1620 1473 1196 887 760 924 1002 1177 1177 1729 1862 1875 2009
56 155 87 98 67 123 242 344 711 1031 1263 1268 990 661 775 849 1806 1994 2231 2181 2389 2225
49 12 40 70 73 43 78 133 191 295 502 513 286 379 431 577 1465 1668 1748 1814 1893 1813
129 95 71 37 32 78 36 19 121 263 322 68 98 168 231 285 1091 1226 799 743 709 871
82 73 96 89 50 54 59 43 110 156 71 59 36 51 112 178 226 247 251 269 315 418
112 93 71 0 0 1 18 33 77 49 19 29 50 23 21 43 60 60 66 69 60 44
158 135 118 47 15 1 59 47 45 18 9 38 30 32 16 25 25 7 17 6 6 0
CIN
-31 -28 -35 -43 -26 -13 -7 -4 -9 -5 -8 -15 -18 -26 -29 -11 -9 -15 -14 -23 -26 -20
-37 -40 -30 -43 -43 -28 -28 -19 -14 -13 -10 -15 -13 -17 -24 -6 -9 -9 -11 -17 -22 -18
-22 -32 -31 -31 -32 -38 -32 -24 -26 -27 -20 -16 -12 -11 -11 -3 -6 -4 -2 -7 -15 -14
-15 -18 -24 -24 -23 -27 -30 -27 -38 -29 -33 -31 -17 -13 -5 -7 -4 -2 -1 -10 -8 -9
-12 -12 -15 -18 -18 -30 -24 -21 -25 -30 -23 -10 -17 -9 -10 -10 -7 -4 -3 -2 -6 -5
-15 -5 -7 -8 -14 -14 -20 -15 -27 -51 -39 -9 -9 -16 -12 -5 -2 -6 -8 -6 -9 -7
-19 -19 -25 -21 -37 -26 -19 -18 -28 -34 -38 -37 -34 -33 -25 -20 -22 -7 -2 -6 -11 -8
-9 -37 -32 -43 -62 -57 -36 -34 -24 -17 -26 -41 -59 -40 -33 -25 -16 -17 -5 -5 -4 -6
-1 -2 -36 -53 -88 -83 -72 -59 -23 -24 -18 -17 -19 -56 -48 -62 -11 -5 -0 -0 -1 -5
-6 -0 -10 -21 -21 -11 -100 -101 -85 -62 -31 -34 -64 -48 -64 -62 -20 -12 -6 -3 -2 -13
-15 -20 -12 -22 -14 -3 -2 -91 -88 -30 -39 -123 -92 -80 -94 -93 -17 -10 -37 -36 -40 -23
-41 -40 -8 -5 -21 -18 -12 -88 -47 -22 -97 -105 -91 -105 -95 -65 -56 -57 -59 -55 -48 -35
-21 -7 -38 -0 -0 -43 -49 -32 -58 -72 -21 -40 -76 -7 -7 -83 -65 -67 -56 -58 -59 -60
-4 -12 -5 -25 -7 -0 -13 -34 -38 -37 -5 -0 -29 -12 -54 -45 -57 -35 -53 -74 -68 -0
Wind_Speed
8 10 10 7 8 10 10 9 8 7 7 5 7 6 6 5 5 5 6 7 10 14
9 9 9 10 10 10 10 12 11 10 8 8 7 8 7 6 7 8 7 7 9 12
12 11 10 12 12 12 11 12 12 11 11 9 8 8 8 9 8 7 7 7 6 8
15 16 14 14 14 13 14 13 12 12 9 7 8 8 9 8 7 7 9 8 6 5
17 19 20 19 16 15 16 17 15 13 13 12 10 10 10 9 9 8 9 9 9 6
19 21 23 24 23 21 18 18 19 19 16 15 13 12 12 12 11 10 10 11 10 10
28 29 27 30 31 32 26 24 23 23 22 21 20 19 17 16 14 13 13 13 11 12
nan 32 33 37 36 37 36 33 31 27 27 26 23 22 19 18 17 17 16 16 16 15
nan 33 nan nan nan 41 40 39 38 36 35 36 35 34 30 22 20 18 18 18 18 17
nan nan nan nan nan nan nan 42 42 43 42 41 40 39 35 32 26 25 25 24 23 22
23 nan nan nan nan nan nan nan 47 46 50 nan nan 47 41 32 38 38 39 37 37 34
nan nan nan nan nan nan nan nan 46 43 nan nan nan nan 53 43 45 46 47 45 46 44
28 nan nan nan nan nan nan nan nan nan nan nan nan nan nan nan nan nan nan nan nan nan
25 25 29 nan nan nan nan nan nan nan nan nan nan nan nan nan nan nan nan nan nan nan
Wind_Direction
182 194 195 197 193 196 194 190 200 199 208 207 183 208 213 199 195 200 197 191 194 201
208 200 212 215 210 216 207 203 206 209 200 198 203 207 217 219 216 208 197 194 187 188
229 227 217 221 224 217 217 220 221 219 210 207 216 219 210 210 229 228 218 208 202 196
224 230 227 209 230 237 242 231 219 226 224 226 244 242 236 218 218 222 235 235 229 215
215 226 229 223 217 235 231 239 225 232 237 239 248 250 249 240 235 226 229 240 237 229
230 233 235 234 234 228 224 229 231 239 238 233 246 255 248 236 233 233 232 240 245 239
246 240 242 243 243 243 236 235 240 238 238 234 234 231 235 239 228 229 238 239 240 241
nan 240 245 242 240 242 240 239 241 244 244 239 236 237 240 239 234 230 228 239 241 241
nan 236 nan nan nan 243 241 239 242 245 245 244 238 230 233 236 240 244 242 234 236 241
nan nan nan nan nan nan nan 243 238 243 246 249 241 227 230 235 249 244 243 242 238 236
251 nan nan nan nan nan nan nan 247 247 246 nan nan 229 232 236 244 247 246 245 245 244
nan nan nan nan nan nan nan nan 249 264 nan nan nan nan 227 233 242 245 247 247 248 248
241 nan nan nan nan nan nan nan nan nan nan nan nan nan nan nan nan nan nan nan nan nan
240 240 244 nan nan nan nan nan nan nan nan nan nan nan nan nan nan nan nan nan nan nan